Hourly Data Report for July 24, 2003

SHERBROOKE A
QUEBEC

45°26'00.000" N
71°41'00.000" W
241.40 m
7028124
71610
YSC

Download Data

Hourly Data (July 2003)
Hourly Data Report for July 24, 2003
TIME
LST
Temp Definition
°C
Dew Point Definition
°C
Rel Hum Definition
%
Precip. Amount Definition
mm

Wind Dir Definition
10's deg

Wind Spd Definition
km/h
Visibility Definition
km
Stn Press Definition
kPa
Hmdx Definition


Wind Chill Definition


Weather Definition


00:00 16.3 15.4 94     0 4.8 98.50      
01:00 16.3 15.5 95     0 2.4 98.51      
02:00 16.8 16.1 96     0 9.7 98.50      
03:00 16.8 16.2 96   9 4 6.4 98.52      
04:00 16.7 16.0 96   8 4 0.3 98.49      
05:00 16.8 16.2 96   2 4 0.3 98.49      
06:00 17.3 16.7 96   6 6 1.6 98.54      
07:00 17.8 17.1 96   8 4 2.4 98.52     Fog
08:00 18.1 17.3 95   9 4 8.0 98.54     Rain, Fog
09:00 18.6 17.7 95   3 6 6.4 98.50     Rain, Fog
10:00 18.7 18.0 96   8 6 4.8 98.54     Moderate Rain, Fog
11:00 19.2 18.3 95   6 4 3.2 98.48     Rain, Fog
12:00 19.8 19.0 95     0 1.6 98.42     Moderate Rain, Fog
13:00 20.3 19.4 95   30 4 12.9 98.38 27   Rain
14:00 20.5 19.5 94   23 4 16.1 98.38 28   Rain Showers
15:00 20.3 19.1 93   24 4 16.1 98.40 27   Rain Showers
16:00 21.2 19.6 91     0 19.3 98.34 28   Mostly Cloudy
17:00 21.6 19.7 89   24 6 15.0 98.35 29    
18:00 21.9 19.6 87   17 6 15.0 98.35 29    
19:00 20.3 18.3 88   27 9 15.0 98.44 27   Moderate Rain
20:00 18.8 17.8 94   20 6 15.0 98.49     Rain
21:00 18.3 17.3 94   24 9 15.0 98.58      
22:00 17.4 16.5 94   26 7 15.0 98.64      
23:00 17.5 16.5 94   23 7 15.0 98.67      

Notes on Data Quality.

Legend

  • E = Estimated
  • M = Missing
  • NA = Not Available*
  • [empty] = Indicates an unobserved value
Date modified: